Location: Bronnegerveen
(52.9548°N, 6.8388°E)
Time: 01:41:59
(UTC+00:00)

Cosmos 1869 - Pass Details

Date: 15 June 2025
Orbit: 464 x 491 km, 82.5° (Epoch: 06 July)

Event Time Altitude Azimuth Distance (km) Brightness Sun altitude
Rises 01:10:06 0° 344° (NNW) 2,590 7.6 -10.9°
Reaches altitude 10° 01:12:17 10° 338° (NNW) 1,702 6.5 -10.7°
Maximum altitude 01:15:50 44° 266° (W) 697 3.6 -10.5°
Enters shadow 01:18:36 15° 198° (SSW) 1,392 4.7 -10.4°
